Flag for Brazil Weather past 2 weeks in Niterói, Rio de Janeiro, Brazil

Now
82 °F

Sunny.


Feels Like: 86 °F
Forecast: 74 / 86 °F
Wind: 10 mph from Northeast

Location: Rio De Janeiro Airport

Current Time: May 28, 2015 at 1:51:38 PM

Latest Report: May 28, 2015 at 1:00 PM


Visibility: 10 mi

Pressure: 29.80 "Hg

Humidity: 66%

Dew point: 70 °F

Location of NiteróiLocation

Historic Weather in Niterói — Graph

°F

Niterói temperature yesterday

Maximum temperature yesterday: 79 °F (at 3:00 PM)
Minimum temperature yesterday: 66 °F (at 6:00 AM)
Average temperature yesterday: 73 °F

Past Weeks' High & Low Weather Summary

 TemperatureHumidityPressure
High84 °F (May 24, 3:00 PM)100% (May 26, 6:00 PM)30.27 "Hg (May 26, 6:00 PM)
Low66 °F (May 15, 6:00 AM)51% (May 23, 1:00 PM)29.83 "Hg (May 28, 12:00 PM)
Average74 °F77%30.11 "Hg
* Reported May 13 12:00 Noon — May 28 12:00 Noon, Niterói, Weather by CustomWeather, © 2015

Note: Actual official high and low records may vary slightly from our data, if they occured in-between our weather recording intervals... More about our weather records

Advertising

Niterói weather history for previous 24 hours

 ConditionsComfort  
Time TempWeatherWind HumidityBarometerVisibility
12:00 PM
Thu, May 28
84 °FSunny.6 mph58%29.83 "Hg10 mi
11:00 AM81 °FSunny.9 mph66%29.86 "Hg10 mi
10:00 AM77 °FSunny.7 mph79%29.89 "Hg10 mi
9:00 AM75 °FSunny.8 mph83%29.89 "Hg10 mi
8:00 AM73 °FSunny.8 mph89%29.89 "Hg10 mi
7:00 AM72 °FSunny.7 mph88%29.89 "Hg10 mi
6:00 AM72 °FSunny.7 mph88%29.86 "Hg10 mi
11:00 PM
Wed, May 27
75 °FClear.6 mph69%29.92 "Hg10 mi
10:00 PM73 °FClear.1 mph78%29.92 "Hg10 mi
9:00 PM72 °FClear.1 mph88%29.92 "Hg10 mi
8:00 PM72 °FClear.3 mph88%29.92 "Hg10 mi
7:00 PM73 °FClear.6 mph78%29.92 "Hg10 mi
6:00 PM73 °FClear.8 mph83%29.89 "Hg10 mi
5:00 PM75 °FClear.10 mph78%29.89 "Hg6 mi
4:00 PM79 °FClear.9 mph70%29.89 "Hg5 mi
3:00 PM79 °FClear.8 mph65%29.89 "Hg5 mi
2:00 PM75 °FClear.10 mph78%29.89 "Hg4 mi
1:00 PM77 °FClear.9 mph74%29.92 "Hg4 mi
Weather by CustomWeather, © 2015

See weather overviewHow to use our weather pages